Tracking 27086 objects as of 22-Mar-2023
HD Live streaming from Space Station
objects crossing your sky now

WESTFORD NEEDLES

Track WESTFORD NEEDLES now!
10-day predictions
WESTFORD NEEDLES is classified as:


NORAD ID: 5702
Int'l Code: 1963-014CU
Perigee: 1,950.5 km
Apogee: 5,230.6 km
Inclination: 86.3 °
Period: 164.9 minutes
Semi major axis: 9961 km
RCS: 0.1919 m2 (medium)
Launch date: May 9, 1963
Source: United States (US)
Launch site: AIR FORCE WESTERN TEST RANGE (AFWTR)
Your satellite tracking list
Your tracking list is empty




NASA's NSSDC Master Catalog

Two Line Element Set (TLE):
1 05702U 63014CU  23080.45223752  .00000328  00000-0  35360-1 0  9992
2 05702  86.3211 238.6826 1646364  41.9772 329.6174  8.73192492323490
Source of the keplerian elements: AFSPC